Home > Time Zones > World Clock > Weather > Italy > Genoa > Past weeks

Flag for Italy Weather past 2 weeks in Genoa, Italy

Now
50 °F

Passing clouds.


Feels Like: 50 °F
Forecast: 41 / 52 °F
Wind: 2 mph from North

Location: Genova / Sestri

Current Time: Jan 27, 2015 at 1:58:23 PM

Latest Report: Jan 27, 2015 at 1:20 PM


Visibility: N/A

Pressure: 29.95 "Hg

Humidity: 67%

Dew point: 39 °F

Location of GenoaLocation

Historic Weather in Genoa — Graph

°F

Genoa temperature yesterday

Maximum temperature yesterday: 52 °F (at 12:20 PM)
Minimum temperature yesterday: 43 °F (at 2:50 AM)
Average temperature yesterday: 46 °F

Past Weeks' High & Low Weather Summary

 TemperatureHumidityPressure
High61 °F (Jan 16, 8:20 PM)94% (Jan 14, 1:50 PM)30.42 "Hg (Jan 14, 1:50 PM)
Low39 °F (Jan 21, 1:50 PM)18% (Jan 25, 1:50 PM)29.71 "Hg (Jan 23, 4:50 AM)
Average51 °F65%29.98 "Hg
* Reported Jan 12 12:20 PM — Jan 27 12:20 PM, Genoa, Weather by CustomWeather, © 2014

Note: Actual official high and low records may vary slightly from our data, if they occured in-between our weather recording intervals... More about our weather records

Advertising

Genoa weather history for previous 24 hours

 ConditionsComfort  
Time TempWeatherWind HumidityBarometerVisibility
12:20 PM
Jan 27
52 °FPassing clouds.5 mph62%29.98 "HgN/A
11:50 AM50 °FPassing clouds.3 mph58%29.98 "HgN/A
11:20 AM50 °FPassing clouds.3 mph58%30.01 "HgN/A
10:50 AM50 °FPassing clouds.2 mph43%30.01 "HgN/A
10:20 AM48 °FSunny.5 mph43%30.01 "Hg10 mi
9:50 AM46 °FSunny.7 mph40%30.01 "Hg10 mi
9:20 AM45 °FSunny.7 mph39%30.01 "Hg10 mi
8:50 AM43 °FSunny.6 mph46%30.01 "Hg10 mi
8:20 AM43 °FPassing clouds.6 mph42%30.01 "HgN/A
7:50 AM43 °FSunny.7 mph36%30.01 "Hg10 mi
7:20 AM41 °FPassing clouds.7 mph39%30.01 "HgN/A
6:50 AM41 °FClear.7 mph36%30.01 "Hg10 mi
6:20 AM41 °FClear.6 mph39%30.01 "Hg10 mi
5:50 AM41 °FPassing clouds.5 mph39%30.01 "HgN/A
4:50 AM41 °FClear.6 mph39%30.04 "Hg10 mi
4:20 AM41 °FPassing clouds.5 mph42%30.04 "HgN/A
2:50 AM43 °FClear.7 mph39%30.07 "Hg10 mi
2:20 AM45 °FPassing clouds.6 mph37%30.09 "HgN/A
1:50 AM46 °FClear.7 mph29%30.09 "Hg10 mi
1:20 AM46 °FClear.7 mph32%30.09 "Hg10 mi
12:50 AM45 °FClear.8 mph37%30.12 "Hg10 mi
12:20 AM46 °FClear.7 mph32%30.12 "Hg10 mi
11:50 PM
Jan 26
46 °FPassing clouds.8 mph34%30.12 "HgN/A
11:20 PM46 °FPassing clouds.7 mph34%30.12 "HgN/A
10:50 PM45 °FClear.7 mph39%30.12 "Hg10 mi
10:20 PM46 °FPassing clouds.6 mph37%30.15 "HgN/A
9:50 PM46 °FPassing clouds.5 mph34%30.15 "HgN/A
9:20 PM45 °FPassing clouds.5 mph37%30.15 "HgN/A
8:50 PM45 °FPassing clouds.3 mph37%30.15 "HgN/A
8:20 PM45 °FPassing clouds.8 mph39%30.15 "HgN/A
7:50 PM45 °FPassing clouds.7 mph34%30.15 "HgN/A
7:20 PM45 °FPassing clouds.7 mph37%30.15 "HgN/A
6:50 PM45 °FPassing clouds.6 mph34%30.15 "HgN/A
6:20 PM46 °FPassing clouds.6 mph32%30.15 "HgN/A
5:50 PM46 °FPassing clouds.8 mph29%30.15 "HgN/A
5:20 PM48 °FPassing clouds.9 mph29%30.15 "HgN/A
4:50 PM48 °FSunny.10 mph29%30.15 "Hg10 mi
4:20 PM48 °FPassing clouds.10 mph32%30.15 "HgN/A
3:50 PM50 °FPassing clouds.13 mph25%30.15 "HgN/A
3:20 PM50 °FPassing clouds.13 mph30%30.15 "HgN/A
2:50 PM50 °FPassing clouds.15 mph28%30.15 "HgN/A
2:20 PM52 °FPassing clouds.13 mph26%30.15 "HgN/A
1:50 PM52 °FPassing clouds.14 mph26%30.18 "HgN/A
1:20 PM52 °FPassing clouds.14 mph26%30.18 "HgN/A
Weather by CustomWeather, © 2014

See weather overviewHow to use our weather pages